Location: Biltmore Gardens
(41.6070°N, 83.4666°W)
Time: 13:39:40
(UTC+00:00)

ERS-1 Rocket - Pass Details

Date: 14 July 2020
Orbit: 752 x 758 km, 98.5° (Epoch: 04 August)

Event Time Altitude Azimuth Distance (km) Brightness Sun altitude
Exits shadow 03:16:29 32° 172° (S) 1,292 3.7 -18.6°
Maximum altitude 03:18:54 82° 256° (WSW) 770 3.0 -18.9°
Drops below altitude 10° 03:23:58 10° 345° (NNW) 2,293 6.5 -19.4°
Sets 03:26:17 0° 346° (NNW) 3,222 7.5 -19.6°
